Weather History for KMQY - February, 2013

Change the Weather History Date:

Saturday, February 23, 2013

  Actual Average Record
Temperature  
Mean Temperature 42 °F -  
Max Temperature 52 °F 51 °F 79 °F (2012)
Min Temperature 31 °F 36 °F 18 °F (2009)
Degree Days  
Heating Degree Days 23    
Moisture  
Dew Point 33 °F    
Average Humidity 73    
Maximum Humidity 89    
Minimum Humidity 48    
Precipitation  
Precipitation 0.00 in - - ()
Sea Level Pressure  
Sea Level Pressure 30.03 in    
Wind  
Wind Speed 4 mph (North)    
Max Wind Speed 9 mph    
Max Gust Speed -    
Visibility 10 miles    
Events      
Averages and records for this station are not official NWS values.
T = Trace of Precipitation, MM = Missing Value Source: NWS Daily Summary

Daily Weather History Graph

Daily Weather History Graph

Search for Another Location

Airport or City:

Trip Planner

Search our weather history database for the weather conditions in past years. The results will help you decide how hot, cold, wet, or windy it might be!

Date:

Astronomy

Feb. 23, 2013 Rise Set
Actual Time 6:23 AM CST 5:35 PM CST
Civil Twilight 5:57 AM CST 6:01 PM CST
Nautical Twilight 5:27 AM CST 6:31 PM CST
Astronomical Twilight 4:58 AM CST 7:01 PM CST
Moon 3:47 PM CST (2/23) 4:43 AM CST (2/23)
Length of Visible Light 12h 03m
Length of Day
11h 12m
Waxing Gibbous, 95% of the Moon is Illuminated
Feb 23
Waxing Gibbous
Feb 25
Full
Mar 4
Last Quarter
Mar 11
New
Mar 19
First Quarter

Hourly Weather History & Observations

Time (CST) Temp. Windchill Dew Point Humidity Pressure Visibility Wind Dir Wind Speed Gust Speed Precip Events Conditions
12:56 AM 45.0 °F - 39.9 °F 82% 30.08 in 10.0 mi Calm Calm - N/A   Overcast
1:56 AM 43.0 °F 38.2 °F 37.9 °F 82% 30.07 in 10.0 mi North 8.1 mph - N/A   Overcast
2:56 AM 41.9 °F 37.5 °F 34.9 °F 76% 30.06 in 10.0 mi North 6.9 mph - N/A   Overcast
3:56 AM 41.0 °F 35.8 °F 34.9 °F 79% 30.05 in 10.0 mi North 8.1 mph - N/A   Overcast
4:31 AM 39.2 °F - 33.8 °F 81% 30.02 in 10.0 mi Calm Calm - N/A   Scattered Clouds
4:56 AM 37.9 °F - 34.0 °F 86% 30.05 in 10.0 mi Calm Calm - N/A   Clear
5:56 AM 36.9 °F 31.4 °F 32.9 °F 86% 30.06 in 10.0 mi North 6.9 mph - N/A   Clear
6:56 AM 36.0 °F 32.1 °F 32.9 °F 89% 30.06 in 10.0 mi NNE 4.6 mph - N/A   Partly Cloudy
7:31 AM 37.4 °F 31.4 °F 33.8 °F 87% 30.03 in 10.0 mi North 8.1 mph - N/A   Mostly Cloudy
7:56 AM 38.8 °F 32.6 °F 34.0 °F 83% 30.07 in 10.0 mi North 9.2 mph - N/A   Overcast
8:56 AM 39.9 °F 34.5 °F 34.0 °F 79% 30.06 in 10.0 mi North 8.1 mph - N/A   Overcast
9:56 AM 41.9 °F - 34.9 °F 76% 30.04 in 10.0 mi Calm Calm - N/A   Overcast
10:56 AM 45.0 °F - 34.9 °F 68% 30.04 in 10.0 mi Calm Calm - N/A   Scattered Clouds
11:56 AM 46.9 °F - 34.0 °F 61% 30.04 in 10.0 mi Calm Calm - N/A   Clear
12:56 PM 47.8 °F - 34.0 °F 59% 30.00 in 10.0 mi North 6.9 mph - N/A   Clear
1:56 PM 50.9 °F - 32.9 °F 50% 29.99 in 10.0 mi Calm Calm - N/A   Clear
2:56 PM 50.9 °F - 32.9 °F 50% 29.98 in 10.0 mi Calm Calm - N/A   Clear
3:56 PM 52.0 °F - 32.9 °F 48% 29.97 in 10.0 mi NNE 4.6 mph - N/A   Clear
4:56 PM 50.9 °F - 32.9 °F 50% 29.95 in 10.0 mi Calm Calm - N/A   Clear
5:56 PM 45.0 °F 40.6 °F 34.0 °F 65% 29.98 in 10.0 mi NNW 8.1 mph - N/A   Clear
6:56 PM 43.0 °F 38.8 °F 32.0 °F 65% 30.01 in 10.0 mi North 6.9 mph - N/A   Clear
7:56 PM 37.9 °F - 30.0 °F 73% 30.02 in 10.0 mi Calm Calm - N/A   Clear
8:56 PM 36.9 °F - 30.0 °F 76% 30.03 in 10.0 mi Calm Calm - N/A   Clear
9:56 PM 34.9 °F - 30.0 °F 82% 30.04 in 10.0 mi Calm Calm - N/A   Clear
10:56 PM 32.0 °F - 29.1 °F 89% 30.05 in 10.0 mi Calm Calm - N/A   Clear
11:56 PM 31.1 °F 25.4 °F 27.1 °F 85% 30.06 in 10.0 mi North 5.8 mph - N/A   Clear